Time,TemperatureF,DewpointF,PressureIn,WindDirection,WindDirectionDegrees,WindSpeedMPH,WindSpeedGustMPH,Humidity,HourlyPrecipIn,Conditions,Clouds,dailyrainin,SoftwareType,DateUTC
2013-01-16 00:03:00,46.0,45.0,30.03,NNE,24,4.0,9.0,97,0.03,,,0.28,,2013-01-16 05:03:00,
2013-01-16 00:12:00,46.0,45.0,30.03,NNE,24,4.0,9.0,97,0.03,,,0.28,,2013-01-16 05:12:00,
2013-01-16 00:23:00,46.0,45.0,30.03,East,94,2.0,8.0,97,0.05,,,0.30,,2013-01-16 05:23:00,
2013-01-16 00:32:00,46.0,45.0,30.03,NNE,30,5.0,8.0,97,0.05,,,0.28,,2013-01-16 05:32:00,
2013-01-16 00:42:00,46.0,45.0,30.03,NNE,30,5.0,8.0,97,0.05,,,0.28,,2013-01-16 05:42:00,
2013-01-16 00:53:00,46.0,45.0,30.03,NE,54,2.0,9.0,97,0.07,,,0.30,,2013-01-16 05:53:00,
2013-01-16 01:03:00,45.0,44.0,30.02,NNE,32,4.0,9.0,97,0.06,,,0.32,,2013-01-16 06:03:00,
2013-01-16 01:12:00,45.0,44.0,30.02,NNE,32,4.0,9.0,97,0.06,,,0.32,,2013-01-16 06:12:00,
2013-01-16 01:22:00,45.0,44.0,30.02,NE,55,7.0,10.0,97,0.05,,,0.33,,2013-01-16 06:22:00,
2013-01-16 01:33:00,45.0,44.0,30.02,ESE,109,0.0,9.0,97,0.04,,,0.32,,2013-01-16 06:33:00,
2013-01-16 01:43:00,45.0,44.0,30.02,ESE,109,0.0,9.0,97,0.04,,,0.32,,2013-01-16 06:43:00,
2013-01-16 01:52:00,45.0,44.0,30.00,NE,38,5.0,9.0,97,0.03,,,0.32,,2013-01-16 06:52:00,
2013-01-16 02:02:00,45.0,44.0,30.01,NE,55,7.0,11.0,97,0.01,,,0.32,,2013-01-16 07:02:00,
2013-01-16 02:12:00,45.0,44.0,30.01,NE,55,7.0,11.0,97,0.01,,,0.32,,2013-01-16 07:12:00,
2013-01-16 02:22:00,45.0,44.0,30.01,ENE,69,3.0,10.0,97,0.00,,,0.32,,2013-01-16 07:22:00,
2013-01-16 02:33:00,45.0,44.0,30.01,NE,42,3.0,11.0,97,0.00,,,0.31,,2013-01-16 07:33:00,
2013-01-16 02:42:00,45.0,44.0,30.01,NE,42,3.0,11.0,97,0.00,,,0.31,,2013-01-16 07:42:00,
2013-01-16 02:52:00,45.0,44.0,30.01,ENE,63,4.0,7.0,97,0.01,,,0.32,,2013-01-16 07:52:00,
2013-01-16 03:03:00,45.0,44.0,30.01,NE,35,5.0,8.0,97,0.01,,,0.32,,2013-01-16 08:03:00,
2013-01-16 03:12:00,45.0,44.0,30.01,NE,35,5.0,8.0,97,0.01,,,0.32,,2013-01-16 08:12:00,
2013-01-16 03:22:00,45.0,44.0,30.01,ENE,64,1.0,9.0,97,0.01,,,0.32,,2013-01-16 08:22:00,
2013-01-16 03:32:00,45.0,44.0,30.01,NNE,28,2.0,5.0,97,0.03,,,0.31,,2013-01-16 08:32:00,
2013-01-16 03:42:00,45.0,44.0,30.01,NNE,28,2.0,5.0,97,0.03,,,0.31,,2013-01-16 08:42:00,
2013-01-16 03:52:00,45.0,44.0,30.01,NNE,15,2.0,4.0,97,0.03,,,0.31,,2013-01-16 08:52:00,
2013-01-16 04:02:00,45.0,44.0,30.01,NNE,24,4.0,8.0,98,0.03,,,0.31,,2013-01-16 09:02:00,
2013-01-16 04:12:00,45.0,44.0,30.01,NNE,24,4.0,8.0,98,0.03,,,0.31,,2013-01-16 09:12:00,
2013-01-16 04:22:00,45.0,44.0,30.01,NE,48,3.0,8.0,97,0.04,,,0.32,,2013-01-16 09:22:00,
2013-01-16 04:33:00,45.0,44.0,30.01,NE,40,2.0,6.0,97,0.01,,,0.31,,2013-01-16 09:33:00,
2013-01-16 04:43:00,45.0,44.0,30.01,NE,40,2.0,6.0,97,0.01,,,0.31,,2013-01-16 09:43:00,
2013-01-16 04:52:00,45.0,44.0,30.00,East,82,2.0,5.0,97,0.01,,,0.31,,2013-01-16 09:52:00,
2013-01-16 05:03:00,45.0,44.0,29.99,NE,48,4.0,7.0,97,0.01,,,0.31,,2013-01-16 10:03:00,
2013-01-16 05:12:00,45.0,44.0,29.99,NE,48,4.0,7.0,97,0.01,,,0.31,,2013-01-16 10:12:00,
2013-01-16 05:22:00,45.0,44.0,29.99,NNE,26,2.0,5.0,97,0.00,,,0.31,,2013-01-16 10:22:00,
2013-01-16 05:32:00,45.0,44.0,29.98,NNE,28,2.0,5.0,98,0.00,,,0.30,,2013-01-16 10:32:00,
2013-01-16 05:43:00,45.0,44.0,29.98,NNE,28,2.0,5.0,98,0.00,,,0.30,,2013-01-16 10:43:00,
2013-01-16 05:52:00,45.0,44.0,29.98,NE,36,2.0,10.0,97,0.00,,,0.30,,2013-01-16 10:52:00,
2013-01-16 06:02:00,45.0,44.0,29.97,NE,54,2.0,5.0,98,0.00,,,0.30,,2013-01-16 11:02:00,
2013-01-16 06:12:00,45.0,44.0,29.97,NE,54,2.0,5.0,98,0.00,,,0.30,,2013-01-16 11:12:00,
2013-01-16 06:23:00,45.0,44.0,29.97,East,93,1.0,4.0,98,0.00,,,0.30,,2013-01-16 11:23:00,
2013-01-16 06:33:00,45.0,44.0,29.97,East,87,2.0,5.0,98,0.02,,,0.32,,2013-01-16 11:33:00,
2013-01-16 06:43:00,45.0,44.0,29.97,East,87,2.0,5.0,98,0.02,,,0.32,,2013-01-16 11:43:00,
2013-01-16 06:52:00,45.0,44.0,29.98,ESE,115,2.0,5.0,97,0.05,,,0.35,,2013-01-16 11:52:00,
2013-01-16 07:03:00,45.0,44.0,29.98,NNE,22,1.0,5.0,98,0.06,,,0.36,,2013-01-16 12:03:00,
2013-01-16 07:13:00,45.0,44.0,29.98,NNE,22,1.0,5.0,98,0.06,,,0.36,,2013-01-16 12:13:00,
2013-01-16 07:22:00,45.0,44.0,29.98,ENE,67,3.0,6.0,98,0.07,,,0.37,,2013-01-16 12:22:00,
2013-01-16 07:33:00,45.0,44.0,29.98,East,94,1.0,3.0,98,0.06,,,0.38,,2013-01-16 12:33:00,
2013-01-16 07:43:00,45.0,44.0,29.98,East,94,1.0,3.0,98,0.06,,,0.38,,2013-01-16 12:43:00,
2013-01-16 07:53:00,45.0,44.0,29.99,NE,49,2.0,4.0,98,0.05,,,0.40,,2013-01-16 12:53:00,
2013-01-16 08:03:00,45.0,44.0,29.99,NE,38,2.0,6.0,98,0.09,,,0.45,,2013-01-16 13:03:00,
2013-01-16 08:13:00,45.0,44.0,29.99,NE,38,2.0,6.0,98,0.09,,,0.45,,2013-01-16 13:13:00,
2013-01-16 08:23:00,45.0,44.0,29.99,NNE,27,2.0,5.0,98,0.11,,,0.48,,2013-01-16 13:23:00,
2013-01-16 08:33:00,45.0,44.0,30.01,NE,44,2.0,4.0,98,0.10,,,0.48,,2013-01-16 13:33:00,
2013-01-16 08:43:00,45.0,44.0,30.01,NE,44,2.0,4.0,98,0.10,,,0.48,,2013-01-16 13:43:00,
2013-01-16 08:52:00,46.0,45.0,30.01,North,360,1.0,6.0,98,0.08,,,0.48,,2013-01-16 13:52:00,
2013-01-16 09:03:00,46.0,45.0,30.01,NE,34,2.0,4.0,98,0.02,,,0.48,,2013-01-16 14:03:00,
2013-01-16 09:12:00,46.0,45.0,30.01,NE,34,2.0,4.0,98,0.02,,,0.48,,2013-01-16 14:12:00,
2013-01-16 09:23:00,46.0,45.0,30.02,ENE,59,2.0,6.0,98,0.00,,,0.48,,2013-01-16 14:23:00,
2013-01-16 09:33:00,46.0,45.0,30.02,East,98,0.0,3.0,98,0.00,,,0.48,,2013-01-16 14:33:00,
2013-01-16 09:43:00,46.0,45.0,30.02,East,98,0.0,3.0,98,0.00,,,0.48,,2013-01-16 14:43:00,
2013-01-16 09:53:00,46.0,45.0,30.03,East,83,1.0,4.0,98,0.00,,,0.48,,2013-01-16 14:53:00,
2013-01-16 10:03:00,46.0,45.0,30.04,ESE,103,1.0,4.0,98,0.00,,,0.48,,2013-01-16 15:03:00,
2013-01-16 10:12:00,46.0,45.0,30.04,ESE,103,1.0,4.0,98,0.00,,,0.48,,2013-01-16 15:12:00,
2013-01-16 10:23:00,46.0,45.0,30.04,ESE,103,1.0,4.0,98,0.00,,,0.48,,2013-01-16 15:23:00,
2013-01-16 10:33:00,47.0,46.0,30.03,SE,130,0.0,3.0,98,0.01,,,0.48,,2013-01-16 15:33:00,
2013-01-16 10:43:00,47.0,46.0,30.03,SE,130,0.0,3.0,98,0.01,,,0.48,,2013-01-16 15:43:00,
2013-01-16 10:53:00,47.0,46.0,30.03,NNE,15,1.0,3.0,98,0.01,,,0.48,,2013-01-16 15:53:00,
2013-01-16 11:04:00,47.0,46.0,30.03,NE,46,2.0,4.0,98,0.01,,,0.48,,2013-01-16 16:04:00,
2013-01-16 11:12:00,47.0,46.0,30.03,NE,46,2.0,4.0,98,0.01,,,0.48,,2013-01-16 16:12:00,
2013-01-16 11:23:00,47.0,46.0,30.03,NE,44,1.0,3.0,98,0.00,,,0.48,,2013-01-16 16:23:00,
2013-01-16 11:33:00,48.0,47.0,30.02,East,94,1.0,4.0,98,0.00,,,0.47,,2013-01-16 16:33:00,
2013-01-16 11:43:00,48.0,47.0,30.02,East,94,1.0,4.0,98,0.00,,,0.47,,2013-01-16 16:43:00,
2013-01-16 11:52:00,48.0,47.0,30.01,East,99,3.0,5.0,98,0.00,,,0.47,,2013-01-16 16:52:00,
2013-01-16 12:03:00,48.0,47.0,30.01,NE,51,3.0,6.0,98,0.00,,,0.47,,2013-01-16 17:03:00,
2013-01-16 12:12:00,48.0,47.0,30.01,NE,51,3.0,6.0,98,0.00,,,0.47,,2013-01-16 17:12:00,
2013-01-16 12:23:00,48.0,47.0,30.01,NE,56,2.0,8.0,98,0.00,,,0.47,,2013-01-16 17:23:00,
2013-01-16 12:33:00,48.0,47.0,30.01,NE,56,2.0,8.0,98,0.00,,,0.47,,2013-01-16 17:33:00,
2013-01-16 12:44:00,48.0,47.0,30.01,NE,56,2.0,8.0,98,0.00,,,0.47,,2013-01-16 17:44:00,
2013-01-16 12:53:00,48.0,47.0,30.00,ENE,65,1.0,7.0,98,0.00,,,0.45,,2013-01-16 17:53:00,
2013-01-16 13:03:00,49.0,48.0,30.00,NE,39,4.0,7.0,98,0.00,,,0.45,,2013-01-16 18:03:00,
2013-01-16 13:13:00,49.0,48.0,30.00,NE,39,4.0,7.0,98,0.00,,,0.45,,2013-01-16 18:13:00,
2013-01-16 13:23:00,49.0,48.0,29.99,NE,46,2.0,5.0,98,0.00,,,0.45,,2013-01-16 18:23:00,
2013-01-16 13:33:00,49.0,48.0,29.98,NE,47,3.0,5.0,98,0.00,,,0.43,,2013-01-16 18:33:00,
2013-01-16 13:43:00,49.0,48.0,29.98,NE,47,3.0,5.0,98,0.00,,,0.43,,2013-01-16 18:43:00,
2013-01-16 13:53:00,49.0,48.0,29.98,ENE,64,1.0,7.0,98,0.00,,,0.43,,2013-01-16 18:53:00,
2013-01-16 14:03:00,49.0,48.0,29.99,SE,136,2.0,5.0,98,0.00,,,0.43,,2013-01-16 19:03:00,
2013-01-16 14:13:00,49.0,48.0,29.99,SE,136,2.0,5.0,98,0.00,,,0.43,,2013-01-16 19:13:00,
2013-01-16 14:23:00,49.0,48.0,29.99,SE,136,0.0,2.0,98,0.00,,,0.43,,2013-01-16 19:23:00,
2013-01-16 14:33:00,50.0,49.0,29.97,SE,128,1.0,4.0,98,0.00,,,0.39,,2013-01-16 19:33:00,
2013-01-16 14:43:00,50.0,49.0,29.97,SE,128,1.0,4.0,98,0.00,,,0.39,,2013-01-16 19:43:00,
2013-01-16 14:52:00,50.0,49.0,29.97,East,91,0.0,3.0,98,0.00,,,0.39,,2013-01-16 19:52:00,
2013-01-16 15:03:00,50.0,49.0,29.97,East,91,0.0,0.0,98,0.00,,,0.39,,2013-01-16 20:03:00,
2013-01-16 15:12:00,50.0,49.0,29.97,East,91,0.0,0.0,98,0.00,,,0.39,,2013-01-16 20:12:00,
2013-01-16 15:23:00,51.0,50.0,29.98,East,94,0.0,0.0,98,0.00,,,0.39,,2013-01-16 20:23:00,
2013-01-16 15:33:00,51.0,50.0,29.98,East,94,0.0,2.0,98,0.00,,,0.36,,2013-01-16 20:33:00,
2013-01-16 15:43:00,51.0,50.0,29.98,East,94,0.0,2.0,98,0.00,,,0.36,,2013-01-16 20:43:00,
2013-01-16 15:53:00,51.0,50.0,29.97,East,94,0.0,0.0,98,0.00,,,0.36,,2013-01-16 20:53:00,
2013-01-16 16:03:00,51.0,50.0,29.98,East,94,0.0,2.0,98,0.00,,,0.36,,2013-01-16 21:03:00,
2013-01-16 16:12:00,51.0,50.0,29.98,East,94,0.0,2.0,98,0.00,,,0.36,,2013-01-16 21:12:00,
2013-01-16 16:22:00,52.0,51.0,29.98,ESE,114,0.0,2.0,97,0.00,,,0.36,,2013-01-16 21:22:00,
2013-01-16 16:23:00,51.0,50.0,29.98,East,94,0.0,2.0,98,0.00,,,0.36,,2013-01-16 21:23:00,
2013-01-16 16:33:00,52.0,51.0,29.98,ESE,107,1.0,3.0,97,0.00,,,0.36,,2013-01-16 21:33:00,
2013-01-16 16:43:00,52.0,51.0,29.98,ESE,107,1.0,3.0,97,0.00,,,0.36,,2013-01-16 21:43:00,
2013-01-16 16:53:00,52.0,51.0,29.98,ESE,114,0.0,2.0,97,0.00,,,0.36,,2013-01-16 21:53:00,
2013-01-16 17:03:00,52.0,51.0,29.98,ESE,114,0.0,2.0,97,0.00,,,0.36,,2013-01-16 22:03:00,
2013-01-16 17:12:00,52.0,51.0,29.98,ESE,114,0.0,2.0,97,0.00,,,0.36,,2013-01-16 22:12:00,
2013-01-16 17:33:00,52.0,51.0,29.98,East,86,0.0,2.0,97,0.00,,,0.36,,2013-01-16 22:33:00,
2013-01-16 17:43:00,52.0,51.0,29.98,East,86,0.0,2.0,97,0.00,,,0.36,,2013-01-16 22:43:00,
2013-01-16 17:53:00,52.0,51.0,29.98,East,86,1.0,3.0,97,0.00,,,0.36,,2013-01-16 22:53:00,
2013-01-16 18:03:00,52.0,51.0,29.99,East,86,0.0,3.0,97,0.00,,,0.36,,2013-01-16 23:03:00,
2013-01-16 18:12:00,52.0,51.0,29.99,East,86,0.0,3.0,97,0.00,,,0.36,,2013-01-16 23:12:00,
2013-01-16 18:23:00,52.0,51.0,29.98,East,86,0.0,0.0,97,0.00,,,0.36,,2013-01-16 23:23:00,
2013-01-16 18:33:00,52.0,51.0,29.99,East,86,0.0,2.0,97,0.00,,,0.35,,2013-01-16 23:33:00,
2013-01-16 18:43:00,52.0,51.0,29.99,East,86,0.0,2.0,97,0.00,,,0.35,,2013-01-16 23:43:00,
2013-01-16 18:52:00,52.0,51.0,29.98,NE,45,1.0,3.0,97,0.01,,,0.36,,2013-01-16 23:52:00,
2013-01-16 19:02:00,52.0,51.0,29.99,NE,45,0.0,3.0,97,0.01,,,0.36,,2013-01-17 00:02:00,
2013-01-16 19:12:00,52.0,51.0,29.99,NE,45,0.0,3.0,97,0.01,,,0.36,,2013-01-17 00:12:00,
2013-01-16 19:22:00,52.0,51.0,29.99,NE,44,3.0,5.0,97,0.02,,,0.37,,2013-01-17 00:22:00,
2013-01-16 19:32:00,52.0,51.0,29.98,NE,44,0.0,2.0,97,0.02,,,0.37,,2013-01-17 00:32:00,
2013-01-16 19:42:00,52.0,51.0,29.98,NE,44,0.0,2.0,97,0.02,,,0.37,,2013-01-17 00:42:00,
2013-01-16 19:52:00,52.0,51.0,29.99,NE,46,0.0,1.0,97,0.01,,,0.37,,2013-01-17 00:52:00,
2013-01-16 20:02:00,51.0,50.0,30.00,NE,46,0.0,0.0,97,0.01,,,0.37,,2013-01-17 01:02:00,
2013-01-16 20:12:00,51.0,50.0,30.00,NE,46,0.0,0.0,97,0.01,,,0.37,,2013-01-17 01:12:00,
2013-01-16 20:22:00,51.0,50.0,30.00,NE,46,1.0,2.0,97,0.00,,,0.37,,2013-01-17 01:22:00,
2013-01-16 20:33:00,51.0,50.0,29.99,NE,46,1.0,3.0,97,0.00,,,0.36,,2013-01-17 01:33:00,
2013-01-16 20:43:00,51.0,50.0,29.99,NE,46,1.0,3.0,97,0.00,,,0.36,,2013-01-17 01:43:00,
2013-01-16 20:52:00,51.0,50.0,30.00,NE,56,0.0,0.0,98,0.00,,,0.36,,2013-01-17 01:52:00,
2013-01-16 21:02:00,51.0,50.0,30.00,NE,56,0.0,0.0,98,0.01,,,0.37,,2013-01-17 02:02:00,
2013-01-16 21:12:00,51.0,50.0,30.00,NE,56,0.0,0.0,98,0.01,,,0.37,,2013-01-17 02:12:00,
2013-01-16 21:22:00,51.0,50.0,30.01,NE,56,0.0,0.0,98,0.01,,,0.37,,2013-01-17 02:22:00,
2013-01-16 21:32:00,51.0,50.0,30.01,NE,56,0.0,0.0,98,0.01,,,0.37,,2013-01-17 02:32:00,
2013-01-16 21:43:00,51.0,50.0,30.01,NE,56,0.0,0.0,98,0.01,,,0.37,,2013-01-17 02:43:00,
2013-01-16 21:52:00,51.0,50.0,30.01,NE,56,0.0,0.0,98,0.01,,,0.37,,2013-01-17 02:52:00,
2013-01-16 22:03:00,51.0,50.0,30.01,NE,56,0.0,1.0,98,0.02,,,0.38,,2013-01-17 03:03:00,
2013-01-16 22:12:00,51.0,50.0,30.01,NE,56,0.0,1.0,98,0.02,,,0.38,,2013-01-17 03:12:00,
2013-01-16 22:22:00,51.0,50.0,30.00,NE,56,0.0,0.0,98,0.01,,,0.38,,2013-01-17 03:22:00,
2013-01-16 22:33:00,51.0,50.0,30.00,NE,56,0.0,1.0,98,0.02,,,0.39,,2013-01-17 03:33:00,
2013-01-16 22:43:00,51.0,50.0,30.00,NE,56,0.0,1.0,98,0.02,,,0.39,,2013-01-17 03:43:00,
2013-01-16 22:52:00,51.0,50.0,29.99,NE,56,0.0,1.0,98,0.01,,,0.39,,2013-01-17 03:52:00,
2013-01-16 23:02:00,52.0,51.0,29.99,NE,56,0.0,1.0,98,0.02,,,0.40,,2013-01-17 04:02:00,
2013-01-16 23:12:00,52.0,51.0,29.98,NE,56,0.0,2.0,98,0.02,,,0.41,,2013-01-17 04:12:00,
2013-01-16 23:22:00,52.0,51.0,29.98,NE,56,0.0,2.0,98,0.02,,,0.41,,2013-01-17 04:22:00,
2013-01-16 23:33:00,52.0,51.0,29.98,NE,56,0.0,1.0,98,0.02,,,0.41,,2013-01-17 04:33:00,
2013-01-16 23:42:00,52.0,51.0,29.98,NE,56,0.0,1.0,98,0.02,,,0.41,,2013-01-17 04:42:00,
2013-01-16 23:52:00,52.0,51.0,29.97,NE,56,0.0,2.0,98,0.02,,,0.41,,2013-01-17 04:52:00,